Weather History for KFXE - January, 2013

Change the Weather History Date:

Sunday, January 20, 2013

  Actual Average (KFLL) Record (KFLL)
Temperature  
Mean Temperature 72 °F 69 °F  
Max Temperature 79 °F 76 °F 88 °F (1947)
Min Temperature 64 °F 62 °F 28 °F (1977)
Degree Days  
Heating Degree Days 0 1  
Month to date heating degree days 36  
Since 1 July heating degree days 68  
Cooling Degree Days 6 5  
Month to date cooling degree days 109  
Year to date cooling degree days 109  
Growing Degree Days 22 (Base 50)    
Moisture  
Dew Point 65 °F    
Average Humidity 88    
Maximum Humidity 100    
Minimum Humidity 56    
Precipitation  
Precipitation 0.11 in 0.12 in 2.04 in (1983)
Month to date precipitation 1.73  
Year to date precipitation 1.73  
Snow  
Snow 0.00 in - - ()
Month to date snowfall  
Since 1 July snowfall  
Snow Depth -    
Sea Level Pressure  
Sea Level Pressure 30.09 in    
Wind  
Wind Speed 3 mph (NNW)    
Max Wind Speed 9 mph    
Max Gust Speed -    
Visibility 7 miles    
Events Fog , Rain    
T = Trace of Precipitation, MM = Missing Value Source: NWS Daily Summary

Daily Weather History Graph

Daily Weather History Graph

Search for Another Location

Airport or City:

Trip Planner

Search our weather history database for the weather conditions in past years. The results will help you decide how hot, cold, wet, or windy it might be!

Date:

Astronomy

Jan. 20, 2013 Rise Set
Actual Time 7:09 AM EST 5:54 PM EST
Civil Twilight 6:44 AM EST 6:19 PM EST
Nautical Twilight 6:16 AM EST 6:47 PM EST
Astronomical Twilight 5:48 AM EST 7:15 PM EST
Moon 12:53 PM EST (1/20) 1:43 AM EST (1/20)
Length of Visible Light 11h 35m
Length of Day
10h 45m
Waxing Gibbous, 66% of the Moon is Illuminated
Jan 20
Waxing Gibbous
Jan 26
Full
Feb 3
Last Quarter
Feb 10
New
Feb 17
First Quarter

Hourly Weather History & Observations

Time (EST) Temp. Dew Point Humidity Pressure Visibility Wind Dir Wind Speed Gust Speed Precip Events Conditions
12:07 AM 66.2 °F 64.4 °F 94% 30.11 in 10.0 mi NW 3.5 mph - N/A   Scattered Clouds
12:18 AM 66.2 °F 64.4 °F 94% 30.11 in 10.0 mi NW 3.5 mph - N/A   Mostly Cloudy
12:53 AM 64.9 °F 64.0 °F 97% 30.11 in 10.0 mi NNW 3.5 mph - N/A   Overcast
1:13 AM 64.4 °F 64.4 °F 100% 30.10 in 0.2 mi Calm Calm - N/A Fog Fog
1:53 AM 64.9 °F 64.0 °F 97% 30.10 in 0.2 mi Calm Calm - N/A Fog Fog
1:58 AM 64.4 °F 64.4 °F 100% 30.09 in 0.2 mi Calm Calm - N/A Fog Fog
2:42 AM 64.4 °F 64.4 °F 100% 30.08 in 0.2 mi Calm Calm - N/A Fog Fog
2:53 AM 64.0 °F 64.0 °F 100% 30.09 in 0.2 mi Calm Calm - N/A Fog Fog
3:42 AM 64.4 °F 64.4 °F 100% 30.08 in 0.2 mi Calm Calm - N/A Fog Fog
3:53 AM 64.0 °F 63.0 °F 96% 30.09 in 0.2 mi Calm Calm - N/A Fog Fog
4:00 AM 64.4 °F 64.4 °F 100% 30.07 in 10.0 mi Calm Calm - N/A   Overcast
4:41 AM 64.4 °F 62.6 °F 94% 30.08 in 10.0 mi Calm Calm - N/A   Overcast
4:53 AM 64.0 °F 63.0 °F 96% 30.08 in 10.0 mi Calm Calm - 0.01 in   Overcast
5:53 AM 64.0 °F 63.0 °F 96% 30.10 in 10.0 mi West 5.8 mph - N/A   Mostly Cloudy
6:17 AM 64.4 °F 62.6 °F 94% 30.10 in 10.0 mi West 4.6 mph - N/A   Mostly Cloudy
6:26 AM 64.4 °F 64.4 °F 100% 30.10 in 4.0 mi West 6.9 mph - N/A   Overcast
6:53 AM 64.0 °F 64.0 °F 100% 30.12 in 4.0 mi WNW 4.6 mph - N/A   Overcast
7:53 AM 64.0 °F 64.0 °F 100% 30.13 in 10.0 mi NNW 3.5 mph - N/A   Overcast
8:04 AM 64.4 °F 64.4 °F 100% 30.13 in 0.2 mi Calm Calm - N/A Fog Fog
8:53 AM 64.9 °F 64.9 °F 100% 30.15 in 0.5 mi Calm Calm - N/A Fog Fog
9:32 AM 66.2 °F 66.2 °F 100% 30.15 in 7.0 mi Calm Calm - N/A   Partly Cloudy
9:53 AM 70.0 °F 66.9 °F 90% 30.17 in 10.0 mi NNW 3.5 mph - N/A   Partly Cloudy
10:53 AM 75.9 °F 66.9 °F 74% 30.15 in 10.0 mi NNW 3.5 mph - N/A   Partly Cloudy
11:53 AM 79.0 °F 64.9 °F 62% 30.11 in 10.0 mi Variable 3.5 mph - N/A   Scattered Clouds
12:53 PM 79.0 °F 62.1 °F 56% 30.07 in 10.0 mi Calm Calm - N/A   Scattered Clouds
1:53 PM 78.1 °F 66.0 °F 66% 30.04 in 10.0 mi ENE 8.1 mph - N/A   Scattered Clouds
2:53 PM 77.0 °F 66.0 °F 69% 30.03 in 10.0 mi East 9.2 mph - N/A   Mostly Cloudy
3:53 PM 75.9 °F 66.0 °F 71% 30.03 in 10.0 mi NE 8.1 mph - N/A   Scattered Clouds
4:53 PM 75.0 °F 66.0 °F 73% 30.05 in 10.0 mi Variable 6.9 mph - N/A   Scattered Clouds
5:53 PM 73.9 °F 66.0 °F 76% 30.05 in 10.0 mi NE 6.9 mph - 0.00 in   Mostly Cloudy
6:53 PM 73.9 °F 64.9 °F 73% 30.06 in 10.0 mi NNE 3.5 mph - N/A   Scattered Clouds
7:53 PM 73.9 °F 66.0 °F 76% 30.06 in 10.0 mi NNE 3.5 mph - N/A   Scattered Clouds
8:53 PM 73.0 °F 64.9 °F 76% 30.06 in 10.0 mi NE 3.5 mph - N/A   Mostly Cloudy
9:10 PM 73.4 °F 66.2 °F 78% 30.06 in 10.0 mi Calm Calm - 0.03 in Rain Light Rain
9:53 PM 71.1 °F 68.0 °F 90% 30.08 in 10.0 mi NNW 3.5 mph - 0.10 in   Mostly Cloudy
10:53 PM 70.0 °F 66.9 °F 90% 30.07 in 10.0 mi Calm Calm - N/A   Scattered Clouds
11:53 PM 69.1 °F 66.9 °F 93% 30.06 in 10.0 mi Calm Calm - N/A   Partly Cloudy